This is the latest recevied weather packets stored in our database for station/object IW2LSY-11. If no packets are shown the sender has not sent any weather packets the latest 10 day(s).
| Time | Temp. | Humidity | Pressure | Rain* | Wind** | Luminosity | Snow |
|---|---|---|---|---|---|---|---|
| 1788567020 | 18.89° C | 87% | 1019.1 hPa | - | - | 566 W/m² | - |
| 1788566420 | 18.89° C | 86% | 1019.1 hPa | - | - | 567 W/m² | - |
| 1788565819 | 18.89° C | 84% | 1019.1 hPa | - | - | 568 W/m² | - |
| 1788565219 | 19.44° C | 82% | 1019.1 hPa | - | - | 568 W/m² | - |
| 1788564619 | 19.44° C | 80% | 1019.2 hPa | - | - | 568 W/m² | - |
| 1788564018 | 20° C | 77% | 1019.2 hPa | - | - | 569 W/m² | - |
| 1788563418 | 20° C | 79% | 1019.2 hPa | - | - | 570 W/m² | - |
| 1788562817 | 20.56° C | 77% | 1019.3 hPa | - | - | 570 W/m² | - |
| 1788562216 | 20° C | 79% | 1019.3 hPa | - | - | 571 W/m² | - |
| 1788561616 | 20.56° C | 78% | 1019.3 hPa | - | - | 572 W/m² | - |
| 1788561015 | 20.56° C | 75% | 1019.2 hPa | - | - | 572 W/m² | - |
| 1788560416 | 20° C | 77% | 1019.3 hPa | - | - | 571 W/m² | - |
| 1788559816 | 20.56° C | 78% | 1019.3 hPa | - | - | 573 W/m² | - |
| 1788559215 | 21.11° C | 73% | 1019.3 hPa | - | - | 573 W/m² | - |
| 1788558616 | 20.56° C | 74% | 1019.2 hPa | - | - | 574 W/m² | - |
| 1788558015 | 21.11° C | 73% | 1019.3 hPa | - | - | 573 W/m² | - |
| 1788557415 | 21.11° C | 73% | 1019.4 hPa | - | - | 575 W/m² | - |
| 1788556815 | 21.67° C | 71% | 1019.2 hPa | - | - | 575 W/m² | - |
| 1788556215 | 21.11° C | 72% | 1019.2 hPa | - | - | 575 W/m² | - |
| 1788554414 | 21.67° C | 70% | 1019.3 hPa | - | - | 578 W/m² | - |
| 1788553813 | 22.22° C | 68% | 1019.3 hPa | - | - | 578 W/m² | - |
| 1788553214 | 22.78° C | 65% | 1019.3 hPa | - | - | 579 W/m² | - |
| 1788552614 | 22.22° C | 65% | 1019.1 hPa | - | - | 580 W/m² | - |
| 1788552014 | 22.78° C | 63% | 1019.1 hPa | - | - | 580 W/m² | - |
| 1788551414 | 23.33° C | 60% | 1019.1 hPa | - | - | 580 W/m² | - |
* Rain since midnight (hover to see other rain measurements)
** Current wind speed in m/s (hover to see current wind gust speed)